User: anonymous
Location: The D'Auria's Ocala Star Observatory
(29.0276°N, 82.1742°W)
Time: 04:35:46
(UTC-04:00)
Language:

Abrixas rocket - Orbit

View from above orbital plane
View from above orbital plane
View from above satellite
View from above satellite

Ground track
Ground track

The orbit data is extracted from the following two-line orbital elements,

1 25723U 99022C   14212.74280900  .00006001  00000-0  20503-3 0  7056
2 25723 048.4228 291.8702 0016163 071.2439 072.6020 15.31434083843982
Epoch (UTC): 31 July 2014 17:49:38
Eccentricity: 0.0016163
inclination: 48.4228°
perigee height: 460 km
apogee height: 482 km
right ascension of ascending node: 291.8702°
argument of perigee: 71.2439°
revolutions per day: 15.31434083
mean anomaly at epoch: 72.6020°
orbit number at epoch: 84398

The dashed part of the orbit path shows where the satellite is in the earth's shadow,  

DLR